Time,TemperatureF,DewpointF,PressureIn,WindDirection,WindDirectionDegrees,WindSpeedMPH,WindSpeedGustMPH,Humidity,HourlyPrecipIn,Conditions,Clouds,dailyrainin,SoftwareType,DateUTC
2013-06-07 00:02:00,58.5,31.4,23.36,West,270,0.2,1.1,36,0.00,,,0.00,WUHU216HW,2013-06-07 06:02:00,
2013-06-07 00:07:00,58.1,31.9,23.36,West,270,0.0,1.1,37,0.00,,,0.00,WUHU216HW,2013-06-07 06:07:00,
2013-06-07 00:12:00,58.0,32.4,23.36,West,270,0.7,1.6,38,0.00,,,0.00,WUHU216HW,2013-06-07 06:12:00,
2013-06-07 00:17:00,57.4,31.9,23.36,SW,225,0.0,2.2,38,0.00,,,0.00,WUHU216HW,2013-06-07 06:17:00,
2013-06-07 00:22:00,57.2,31.7,23.36,West,270,0.0,2.2,38,0.00,,,0.00,WUHU216HW,2013-06-07 06:22:00,
2013-06-07 00:27:00,57.2,31.7,23.36,West,270,0.0,1.1,38,0.00,,,0.00,WUHU216HW,2013-06-07 06:27:00,
2013-06-07 00:32:00,57.1,31.6,23.36,West,270,0.0,0.9,38,0.00,,,0.00,WUHU216HW,2013-06-07 06:32:00,
2013-06-07 00:37:00,56.7,32.0,23.36,West,270,0.7,1.1,39,0.00,,,0.00,WUHU216HW,2013-06-07 06:37:00,
2013-06-07 00:42:00,56.5,32.5,23.36,West,270,1.1,1.1,40,0.00,,,0.00,WUHU216HW,2013-06-07 06:42:00,
2013-06-07 00:47:00,56.3,31.6,23.36,SW,225,1.1,1.6,39,0.00,,,0.00,WUHU216HW,2013-06-07 06:47:00,
2013-06-07 00:52:00,56.3,31.6,23.36,WSW,248,0.9,2.0,39,0.00,,,0.00,WUHU216HW,2013-06-07 06:52:00,
2013-06-07 00:57:00,56.3,32.3,23.36,WSW,248,0.4,2.0,40,0.00,,,0.00,WUHU216HW,2013-06-07 06:57:00,
2013-06-07 01:02:00,56.5,31.8,23.36,WSW,248,0.0,1.8,39,0.00,,,0.00,WUHU216HW,2013-06-07 07:02:00,
2013-06-07 01:07:00,56.5,31.8,23.36,WSW,248,0.0,0.4,39,0.00,,,0.00,WUHU216HW,2013-06-07 07:07:00,
2013-06-07 01:12:00,56.5,32.5,23.35,WSW,248,1.1,1.8,40,0.00,,,0.00,WUHU216HW,2013-06-07 07:12:00,
2013-06-07 01:17:00,56.3,32.3,23.36,West,270,1.6,1.8,40,0.00,,,0.00,WUHU216HW,2013-06-07 07:17:00,
2013-06-07 01:22:00,56.2,32.1,23.36,West,270,0.4,1.8,40,0.00,,,0.00,WUHU216HW,2013-06-07 07:22:00,
2013-06-07 01:27:00,56.2,32.1,23.35,WSW,248,1.8,1.8,40,0.00,,,0.00,WUHU216HW,2013-06-07 07:27:00,
2013-06-07 01:32:00,56.2,32.1,23.35,WSW,248,0.9,1.8,40,0.00,,,0.00,WUHU216HW,2013-06-07 07:32:00,
2013-06-07 01:37:00,56.0,32.0,23.35,WSW,248,0.7,1.8,40,0.00,,,0.00,WUHU216HW,2013-06-07 07:37:00,
2013-06-07 01:42:00,55.8,31.9,23.35,WSW,248,0.0,1.6,40,0.00,,,0.00,WUHU216HW,2013-06-07 07:42:00,
2013-06-07 01:47:00,55.8,31.9,23.35,WSW,248,0.0,0.7,40,0.00,,,0.00,WUHU216HW,2013-06-07 07:47:00,
2013-06-07 01:52:00,55.6,32.2,23.35,WSW,248,0.4,1.6,41,0.00,,,0.00,WUHU216HW,2013-06-07 07:52:00,
2013-06-07 01:57:00,55.3,31.9,23.35,WSW,248,0.9,1.6,41,0.00,,,0.00,WUHU216HW,2013-06-07 07:57:00,
2013-06-07 02:02:00,55.1,32.9,23.35,WSW,248,1.3,1.3,43,0.00,,,0.00,WUHU216HW,2013-06-07 08:02:00,
2013-06-07 02:07:00,55.1,32.9,23.35,WSW,248,1.8,1.8,43,0.00,,,0.00,WUHU216HW,2013-06-07 08:07:00,
2013-06-07 02:12:00,55.1,32.9,23.35,WSW,248,1.6,2.0,43,0.00,,,0.00,WUHU216HW,2013-06-07 08:12:00,
2013-06-07 02:17:00,55.3,33.0,23.35,WSW,248,2.0,2.2,43,0.00,,,0.00,WUHU216HW,2013-06-07 08:17:00,
2013-06-07 02:22:00,55.3,33.0,23.35,WSW,248,1.8,2.2,43,0.00,,,0.00,WUHU216HW,2013-06-07 08:22:00,
2013-06-07 02:27:00,55.3,33.0,23.35,SW,225,1.3,2.0,43,0.00,,,0.00,WUHU216HW,2013-06-07 08:27:00,
2013-06-07 02:32:00,55.1,32.9,23.35,SW,225,0.4,1.8,43,0.00,,,0.00,WUHU216HW,2013-06-07 08:32:00,
2013-06-07 02:37:00,55.1,32.9,23.35,SW,225,0.0,1.6,43,0.00,,,0.00,WUHU216HW,2013-06-07 08:37:00,
2013-06-07 02:42:00,55.1,32.3,23.35,SW,225,0.0,0.4,42,0.00,,,0.00,WUHU216HW,2013-06-07 08:42:00,
2013-06-07 02:47:00,55.1,32.3,23.35,SW,225,0.0,0.0,42,0.00,,,0.00,WUHU216HW,2013-06-07 08:47:00,
2013-06-07 02:52:00,54.7,32.5,23.35,SW,225,0.4,0.4,43,0.00,,,0.00,WUHU216HW,2013-06-07 08:52:00,
2013-06-07 02:57:00,54.4,32.8,23.35,SW,225,0.0,0.4,44,0.00,,,0.00,WUHU216HW,2013-06-07 08:57:00,
2013-06-07 03:02:00,54.0,32.4,23.35,SW,225,0.0,0.4,44,0.00,,,0.00,WUHU216HW,2013-06-07 09:02:00,
2013-06-07 03:07:00,53.8,32.3,23.35,SW,225,0.0,0.4,44,0.00,,,0.00,WUHU216HW,2013-06-07 09:07:00,
2013-06-07 03:12:00,53.6,32.7,23.35,SW,225,0.0,0.4,45,0.00,,,0.00,WUHU216HW,2013-06-07 09:12:00,
2013-06-07 03:17:00,53.3,33.0,23.35,SW,225,0.7,0.9,46,0.00,,,0.00,WUHU216HW,2013-06-07 09:17:00,
2013-06-07 03:22:00,53.1,32.8,23.35,SW,225,0.0,0.9,46,0.00,,,0.00,WUHU216HW,2013-06-07 09:22:00,
2013-06-07 03:27:00,53.1,32.8,23.34,SW,225,0.0,0.9,46,0.00,,,0.00,WUHU216HW,2013-06-07 09:27:00,
2013-06-07 03:32:00,53.1,32.8,23.34,SW,225,0.0,0.0,46,0.00,,,0.00,WUHU216HW,2013-06-07 09:32:00,
2013-06-07 03:37:00,53.1,32.8,23.34,SW,225,0.2,1.1,46,0.00,,,0.00,WUHU216HW,2013-06-07 09:37:00,
2013-06-07 03:42:00,52.9,32.6,23.34,SW,225,0.2,1.1,46,0.00,,,0.00,WUHU216HW,2013-06-07 09:42:00,
2013-06-07 03:47:00,52.7,32.4,23.34,SW,225,1.1,1.3,46,0.00,,,0.00,WUHU216HW,2013-06-07 09:47:00,
2013-06-07 03:52:00,52.6,32.2,23.34,SW,225,1.1,1.3,46,0.00,,,0.00,WUHU216HW,2013-06-07 09:52:00,
2013-06-07 03:57:00,52.6,32.2,23.34,WSW,248,0.0,1.1,46,0.00,,,0.00,WUHU216HW,2013-06-07 09:57:00,
2013-06-07 04:02:00,52.6,32.2,23.34,West,270,0.7,1.1,46,0.00,,,0.00,WUHU216HW,2013-06-07 10:02:00,
2013-06-07 04:07:00,52.9,32.6,23.34,West,270,0.4,0.9,46,0.00,,,0.00,WUHU216HW,2013-06-07 10:07:00,
2013-06-07 04:12:00,53.1,32.8,23.34,West,270,0.4,0.9,46,0.00,,,0.00,WUHU216HW,2013-06-07 10:12:00,
2013-06-07 04:17:00,53.3,33.0,23.34,West,270,0.9,0.9,46,0.00,,,0.00,WUHU216HW,2013-06-07 10:17:00,
2013-06-07 04:22:00,53.1,32.8,23.34,WSW,248,0.2,0.9,46,0.00,,,0.00,WUHU216HW,2013-06-07 10:22:00,
2013-06-07 04:27:00,53.1,32.8,23.34,WSW,248,0.0,1.1,46,0.00,,,0.00,WUHU216HW,2013-06-07 10:27:00,
2013-06-07 04:32:00,52.9,32.6,23.34,WSW,248,0.0,1.1,46,0.00,,,0.00,WUHU216HW,2013-06-07 10:32:00,
2013-06-07 04:37:00,52.7,32.4,23.34,WSW,248,0.0,0.4,46,0.00,,,0.00,WUHU216HW,2013-06-07 10:37:00,
2013-06-07 04:42:00,52.4,32.1,23.34,WSW,248,0.0,0.4,46,0.00,,,0.00,WUHU216HW,2013-06-07 10:42:00,
2013-06-07 04:47:00,52.2,33.0,23.34,WSW,248,0.0,0.9,48,0.00,,,0.00,WUHU216HW,2013-06-07 10:47:00,
2013-06-07 04:52:00,51.8,32.8,23.34,SW,225,0.4,1.6,48,0.00,,,0.00,WUHU216HW,2013-06-07 10:52:00,
2013-06-07 04:57:00,51.8,33.3,23.34,SW,225,1.1,1.6,49,0.00,,,0.00,WUHU216HW,2013-06-07 10:57:00,
2013-06-07 05:02:00,51.7,33.1,23.34,SW,225,1.6,1.6,49,0.00,,,0.00,WUHU216HW,2013-06-07 11:02:00,
2013-06-07 05:07:00,51.7,32.6,23.34,SW,225,0.7,1.6,48,0.00,,,0.00,WUHU216HW,2013-06-07 11:07:00,
2013-06-07 05:12:00,51.7,33.1,23.34,SW,225,0.4,1.6,49,0.00,,,0.00,WUHU216HW,2013-06-07 11:12:00,
2013-06-07 05:17:00,51.5,32.9,23.34,SW,225,1.1,1.8,49,0.00,,,0.00,WUHU216HW,2013-06-07 11:17:00,
2013-06-07 05:22:00,51.5,32.4,23.34,SW,225,0.0,1.8,48,0.00,,,0.00,WUHU216HW,2013-06-07 11:22:00,
2013-06-07 05:27:00,51.5,32.9,23.34,SW,225,0.4,1.1,49,0.00,,,0.00,WUHU216HW,2013-06-07 11:27:00,
2013-06-07 05:32:00,51.5,32.4,23.34,SW,225,0.0,0.7,48,0.00,,,0.00,WUHU216HW,2013-06-07 11:32:00,
2013-06-07 05:37:00,51.3,32.2,23.34,SW,225,0.0,0.4,48,0.00,,,0.00,WUHU216HW,2013-06-07 11:37:00,
2013-06-07 05:42:00,51.1,32.7,23.34,SW,225,0.9,1.1,49,0.00,,,0.00,WUHU216HW,2013-06-07 11:42:00,
2013-06-07 05:47:00,51.1,32.7,23.34,SW,225,0.0,1.1,49,0.00,,,0.00,WUHU216HW,2013-06-07 11:47:00,
2013-06-07 05:52:00,51.1,32.7,23.34,SW,225,0.7,0.7,49,0.00,,,0.00,WUHU216HW,2013-06-07 11:52:00,
2013-06-07 05:57:00,50.9,32.5,23.34,SW,225,0.0,1.1,49,0.00,,,0.00,WUHU216HW,2013-06-07 11:57:00,
2013-06-07 06:02:00,50.8,32.3,23.34,SW,225,0.0,1.1,49,0.00,,,0.00,WUHU216HW,2013-06-07 12:02:00,
2013-06-07 06:07:00,50.8,32.9,23.34,SW,225,0.4,1.1,50,0.00,,,0.00,WUHU216HW,2013-06-07 12:07:00,
2013-06-07 06:12:00,50.8,32.9,23.34,SW,225,0.0,1.1,50,0.00,,,0.00,WUHU216HW,2013-06-07 12:12:00,
2013-06-07 06:17:00,50.8,32.9,23.34,SW,225,0.9,1.1,50,0.00,,,0.00,WUHU216HW,2013-06-07 12:17:00,
2013-06-07 06:22:00,51.1,33.2,23.34,SW,225,0.0,1.1,50,0.00,,,0.00,WUHU216HW,2013-06-07 12:22:00,
2013-06-07 06:27:00,51.5,33.5,23.34,SW,225,0.0,0.9,50,0.00,,,0.00,WUHU216HW,2013-06-07 12:27:00,
2013-06-07 06:32:00,52.0,34.0,23.34,SSE,158,0.2,0.4,50,0.00,,,0.00,WUHU216HW,2013-06-07 12:32:00,
2013-06-07 06:37:00,52.6,33.9,23.34,SSE,158,0.2,0.4,49,0.00,,,0.00,WUHU216HW,2013-06-07 12:37:00,
2013-06-07 06:42:00,53.1,33.8,23.34,East,90,0.4,0.7,48,0.00,,,0.00,WUHU216HW,2013-06-07 12:42:00,
2013-06-07 06:47:00,53.8,33.9,23.34,East,90,0.4,0.7,47,0.00,,,0.00,WUHU216HW,2013-06-07 12:47:00,
2013-06-07 06:52:00,54.4,35.0,23.34,East,90,1.1,1.1,48,0.00,,,0.00,WUHU216HW,2013-06-07 12:52:00,
2013-06-07 06:57:00,55.1,35.6,23.34,East,90,0.7,1.1,48,0.00,,,0.00,WUHU216HW,2013-06-07 12:57:00,
2013-06-07 07:02:00,55.4,35.4,23.35,East,90,0.4,1.1,47,0.00,,,0.00,WUHU216HW,2013-06-07 13:02:00,
2013-06-07 07:07:00,56.2,36.1,23.35,East,90,0.0,0.7,47,0.00,,,0.00,WUHU216HW,2013-06-07 13:07:00,
2013-06-07 07:12:00,56.9,36.8,23.35,East,90,0.7,0.9,47,0.00,,,0.00,WUHU216HW,2013-06-07 13:12:00,
2013-06-07 07:17:00,57.6,36.9,23.35,ENE,68,1.1,1.3,46,0.00,,,0.00,WUHU216HW,2013-06-07 13:17:00,
2013-06-07 07:22:00,58.0,37.3,23.35,ENE,68,1.1,1.8,46,0.00,,,0.00,WUHU216HW,2013-06-07 13:22:00,
2013-06-07 07:27:00,58.5,37.7,23.35,ENE,68,1.1,1.8,46,0.00,,,0.00,WUHU216HW,2013-06-07 13:27:00,
2013-06-07 07:32:00,58.9,37.4,23.35,ENE,68,0.9,1.6,45,0.00,,,0.00,WUHU216HW,2013-06-07 13:32:00,
2013-06-07 07:37:00,59.4,37.4,23.35,ENE,68,0.7,1.3,44,0.00,,,0.00,WUHU216HW,2013-06-07 13:37:00,
2013-06-07 07:42:00,59.8,37.7,23.35,ENE,68,1.1,1.1,44,0.00,,,0.00,WUHU216HW,2013-06-07 13:42:00,
2013-06-07 07:47:00,60.1,37.4,23.35,ENE,68,1.6,1.8,43,0.00,,,0.00,WUHU216HW,2013-06-07 13:47:00,
2013-06-07 07:52:00,60.7,37.4,23.35,NE,45,1.8,1.8,42,0.00,,,0.00,WUHU216HW,2013-06-07 13:52:00,
2013-06-07 07:57:00,61.0,38.3,23.35,East,90,2.0,2.5,43,0.00,,,0.00,WUHU216HW,2013-06-07 13:57:00,
2013-06-07 08:02:00,61.2,37.8,23.35,ENE,68,1.3,2.5,42,0.00,,,0.00,WUHU216HW,2013-06-07 14:02:00,
2013-06-07 08:07:00,61.6,37.6,23.35,ENE,68,1.3,2.0,41,0.00,,,0.00,WUHU216HW,2013-06-07 14:07:00,
2013-06-07 08:12:00,61.7,37.7,23.35,NE,45,2.0,2.2,41,0.00,,,0.00,WUHU216HW,2013-06-07 14:12:00,
2013-06-07 08:17:00,62.1,38.1,23.35,NE,45,2.5,2.5,41,0.00,,,0.00,WUHU216HW,2013-06-07 14:17:00,
2013-06-07 08:22:00,62.3,38.8,23.35,NE,45,1.3,2.5,42,0.00,,,0.00,WUHU216HW,2013-06-07 14:22:00,
2013-06-07 08:27:00,62.5,38.4,23.35,NE,45,1.6,2.5,41,0.00,,,0.00,WUHU216HW,2013-06-07 14:27:00,
2013-06-07 08:32:00,62.8,38.2,23.35,NE,45,1.1,2.5,40,0.00,,,0.00,WUHU216HW,2013-06-07 14:32:00,
2013-06-07 08:37:00,62.8,38.2,23.35,NE,45,1.8,2.5,40,0.00,,,0.00,WUHU216HW,2013-06-07 14:37:00,
2013-06-07 08:42:00,62.6,38.0,23.36,NE,45,2.5,2.5,40,0.00,,,0.00,WUHU216HW,2013-06-07 14:42:00,
2013-06-07 08:47:00,62.5,38.4,23.36,NE,45,0.7,2.5,41,0.00,,,0.00,WUHU216HW,2013-06-07 14:47:00,
2013-06-07 08:52:00,62.5,39.5,23.36,NE,45,1.1,2.5,43,0.00,,,0.00,WUHU216HW,2013-06-07 14:52:00,
2013-06-07 08:57:00,62.6,39.2,23.36,NE,45,1.8,2.5,42,0.00,,,0.00,WUHU216HW,2013-06-07 14:57:00,
2013-06-07 09:02:00,62.6,38.5,23.35,NNE,23,1.1,2.5,41,0.00,,,0.00,WUHU216HW,2013-06-07 15:02:00,
2013-06-07 09:07:00,63.0,39.4,23.36,ENE,68,1.6,2.2,42,0.00,,,0.00,WUHU216HW,2013-06-07 15:07:00,
2013-06-07 09:12:00,63.7,39.5,23.35,NE,45,2.0,2.9,41,0.00,,,0.00,WUHU216HW,2013-06-07 15:12:00,
2013-06-07 09:17:00,64.3,39.4,23.35,ENE,68,0.7,2.9,40,0.00,,,0.00,WUHU216HW,2013-06-07 15:17:00,
2013-06-07 09:22:00,64.6,40.3,23.36,ENE,68,1.8,2.7,41,0.00,,,0.00,WUHU216HW,2013-06-07 15:22:00,
2013-06-07 09:27:00,64.8,40.0,23.36,ENE,68,2.2,2.7,40,0.00,,,0.00,WUHU216HW,2013-06-07 15:27:00,
2013-06-07 09:32:00,65.0,40.7,23.35,ENE,68,1.3,2.5,41,0.00,,,0.00,WUHU216HW,2013-06-07 15:32:00,
2013-06-07 09:37:00,65.3,41.0,23.35,NE,45,2.2,2.7,41,0.00,,,0.00,WUHU216HW,2013-06-07 15:37:00,
2013-06-07 09:42:00,65.9,41.5,23.35,ENE,68,1.3,2.7,41,0.00,,,0.00,WUHU216HW,2013-06-07 15:42:00,
2013-06-07 09:47:00,66.4,41.9,23.35,ENE,68,2.5,2.5,41,0.00,,,0.00,WUHU216HW,2013-06-07 15:47:00,
2013-06-07 09:52:00,66.8,41.7,23.35,ENE,68,2.0,2.5,40,0.00,,,0.00,WUHU216HW,2013-06-07 15:52:00,
2013-06-07 09:57:00,67.0,41.9,23.35,ENE,68,2.0,2.5,40,0.00,,,0.00,WUHU216HW,2013-06-07 15:57:00,
2013-06-07 10:02:00,67.1,41.3,23.35,NE,45,2.2,2.2,39,0.00,,,0.00,WUHU216HW,2013-06-07 16:02:00,
2013-06-07 10:07:00,67.3,41.5,23.35,NE,45,2.9,2.9,39,0.00,,,0.00,WUHU216HW,2013-06-07 16:07:00,
2013-06-07 10:12:00,67.7,41.8,23.35,NE,45,2.2,3.4,39,0.00,,,0.00,WUHU216HW,2013-06-07 16:12:00,
2013-06-07 10:17:00,67.7,41.8,23.35,NE,45,2.5,3.4,39,0.00,,,0.00,WUHU216HW,2013-06-07 16:17:00,
2013-06-07 10:22:00,68.0,42.1,23.34,SSW,203,0.4,2.5,39,0.00,,,0.00,WUHU216HW,2013-06-07 16:22:00,
2013-06-07 10:27:00,68.4,43.2,23.35,NE,45,0.4,2.2,40,0.00,,,0.00,WUHU216HW,2013-06-07 16:27:00,
2013-06-07 10:32:00,69.1,42.3,23.35,WNW,293,0.0,2.9,38,0.00,,,0.00,WUHU216HW,2013-06-07 16:32:00,
2013-06-07 10:37:00,69.7,41.3,23.35,West,270,0.7,3.4,36,0.00,,,0.00,WUHU216HW,2013-06-07 16:37:00,
2013-06-07 10:42:00,70.0,42.4,23.35,WNW,293,0.7,3.4,37,0.00,,,0.00,WUHU216HW,2013-06-07 16:42:00,
2013-06-07 10:47:00,70.7,43.0,23.34,North,0,0.2,3.4,37,0.00,,,0.00,WUHU216HW,2013-06-07 16:47:00,
2013-06-07 10:52:00,71.5,42.2,23.35,West,270,2.5,4.9,35,0.00,,,0.00,WUHU216HW,2013-06-07 16:52:00,
2013-06-07 10:57:00,71.6,41.7,23.34,East,90,0.4,4.9,34,0.00,,,0.00,WUHU216HW,2013-06-07 16:57:00,
2013-06-07 11:02:00,72.4,43.0,23.35,WNW,293,1.8,3.6,35,0.00,,,0.00,WUHU216HW,2013-06-07 17:02:00,
2013-06-07 11:07:00,72.9,42.8,23.34,South,180,0.9,3.4,34,0.00,,,0.00,WUHU216HW,2013-06-07 17:07:00,
2013-06-07 11:12:00,73.1,42.1,23.34,West,270,0.9,4.0,33,0.00,,,0.00,WUHU216HW,2013-06-07 17:12:00,
2013-06-07 11:17:00,72.9,41.9,23.35,WSW,248,0.7,4.0,33,0.00,,,0.00,WUHU216HW,2013-06-07 17:17:00,
2013-06-07 11:22:00,72.7,41.0,23.35,SW,225,1.3,3.4,32,0.00,,,0.00,WUHU216HW,2013-06-07 17:22:00,
2013-06-07 11:27:00,72.7,41.0,23.34,NW,315,1.6,6.3,32,0.00,,,0.00,WUHU216HW,2013-06-07 17:27:00,
2013-06-07 11:32:00,72.7,41.0,23.35,SW,225,1.8,6.3,32,0.00,,,0.00,WUHU216HW,2013-06-07 17:32:00,
2013-06-07 11:37:00,72.9,39.7,23.34,West,270,1.3,5.4,30,0.00,,,0.00,WUHU216HW,2013-06-07 17:37:00,
2013-06-07 11:42:00,73.1,40.6,23.35,NNW,338,1.6,6.0,31,0.00,,,0.00,WUHU216HW,2013-06-07 17:42:00,
2013-06-07 11:47:00,73.1,39.9,23.34,WSW,248,3.4,6.0,30,0.00,,,0.00,WUHU216HW,2013-06-07 17:47:00,
2013-06-07 11:52:00,73.3,40.0,23.34,WSW,248,2.5,4.7,30,0.00,,,0.00,WUHU216HW,2013-06-07 17:52:00,
2013-06-07 11:57:00,73.6,41.9,23.34,NNE,23,1.6,4.0,32,0.00,,,0.00,WUHU216HW,2013-06-07 17:57:00,
2013-06-07 12:02:00,74.0,42.1,23.34,NNW,338,1.1,4.0,32,0.00,,,0.00,WUHU216HW,2013-06-07 18:02:00,
2013-06-07 12:07:00,74.2,40.8,23.34,North,0,2.0,5.4,30,0.00,,,0.00,WUHU216HW,2013-06-07 18:07:00,
2013-06-07 12:13:00,74.2,38.8,23.35,North,0,3.4,5.4,28,0.00,,,0.00,WUHU216HW,2013-06-07 18:13:00,
2013-06-07 12:18:00,73.8,39.4,23.35,WSW,248,3.1,5.4,29,0.00,,,0.00,WUHU216HW,2013-06-07 18:18:00,
2013-06-07 12:23:00,73.3,39.0,23.35,North,0,0.9,6.0,29,0.00,,,0.00,WUHU216HW,2013-06-07 18:23:00,
2013-06-07 12:28:00,72.9,39.7,23.35,SSW,203,1.8,6.0,30,0.00,,,0.00,WUHU216HW,2013-06-07 18:28:00,
2013-06-07 12:33:00,72.7,39.6,23.35,WSW,248,1.6,6.5,30,0.00,,,0.00,WUHU216HW,2013-06-07 18:33:00,
2013-06-07 12:38:00,73.1,38.9,23.35,WSW,248,2.2,6.5,29,0.00,,,0.00,WUHU216HW,2013-06-07 18:38:00,
2013-06-07 12:43:00,73.3,40.0,23.35,SSW,203,2.5,4.7,30,0.00,,,0.00,WUHU216HW,2013-06-07 18:43:00,
2013-06-07 12:48:00,73.8,39.4,23.35,WNW,293,2.7,7.6,29,0.00,,,0.00,WUHU216HW,2013-06-07 18:48:00,
2013-06-07 12:53:00,74.0,39.6,23.35,North,0,2.2,7.6,29,0.00,,,0.00,WUHU216HW,2013-06-07 18:53:00,
2013-06-07 12:59:00,74.2,36.7,23.35,South,180,2.9,6.7,26,0.00,,,0.00,WUHU216HW,2013-06-07 18:59:00,
2013-06-07 13:04:00,74.9,39.4,23.35,SSW,203,2.2,6.0,28,0.00,,,0.00,WUHU216HW,2013-06-07 19:04:00,
2013-06-07 13:09:00,75.8,39.2,23.35,West,270,4.7,6.0,27,0.00,,,0.00,WUHU216HW,2013-06-07 19:09:00,
2013-06-07 13:14:00,76.3,40.7,23.34,WNW,293,6.3,6.3,28,0.00,,,0.00,WUHU216HW,2013-06-07 19:14:00,
2013-06-07 13:19:00,76.0,40.3,23.34,NNW,338,2.7,7.6,28,0.00,,,0.00,WUHU216HW,2013-06-07 19:19:00,
2013-06-07 13:25:00,76.0,40.3,23.34,ENE,68,0.9,7.6,28,0.00,,,0.00,WUHU216HW,2013-06-07 19:25:00,
2013-06-07 13:30:00,75.6,38.0,23.34,SSW,203,3.4,7.6,26,0.00,,,0.00,WUHU216HW,2013-06-07 19:30:00,
2013-06-07 13:35:00,75.2,39.7,23.34,South,180,3.4,7.6,28,0.00,,,0.00,WUHU216HW,2013-06-07 19:35:00,
2013-06-07 13:40:00,74.9,39.4,23.34,WSW,248,3.6,7.6,28,0.00,,,0.00,WUHU216HW,2013-06-07 19:40:00,
2013-06-07 13:45:00,74.5,40.1,23.34,North,0,1.8,6.0,29,0.00,,,0.00,WUHU216HW,2013-06-07 19:45:00,
2013-06-07 13:50:00,74.2,39.8,23.34,West,270,1.1,5.4,29,0.00,,,0.00,WUHU216HW,2013-06-07 19:50:00,
2013-06-07 13:55:00,74.0,40.6,23.34,SSW,203,1.3,5.4,30,0.00,,,0.00,WUHU216HW,2013-06-07 19:55:00,
2013-06-07 14:00:00,74.0,40.6,23.34,WSW,248,1.1,3.6,30,0.00,,,0.00,WUHU216HW,2013-06-07 20:00:00,
2013-06-07 14:05:00,73.8,41.2,23.34,NNW,338,2.5,5.1,31,0.00,,,0.00,WUHU216HW,2013-06-07 20:05:00,
2013-06-07 14:10:00,73.8,41.2,23.34,West,270,4.3,5.1,31,0.00,,,0.00,WUHU216HW,2013-06-07 20:10:00,
2013-06-07 14:16:00,73.8,41.2,23.34,ENE,68,0.7,4.7,31,0.00,,,0.00,WUHU216HW,2013-06-07 20:16:00,
2013-06-07 14:21:00,73.8,41.2,23.34,West,270,1.1,4.7,31,0.00,,,0.00,WUHU216HW,2013-06-07 20:21:00,
2013-06-07 14:27:00,73.8,40.5,23.33,WNW,293,0.7,4.7,30,0.00,,,0.00,WUHU216HW,2013-06-07 20:27:00,
2013-06-07 14:32:00,73.6,40.3,23.33,NE,45,1.8,4.7,30,0.00,,,0.00,WUHU216HW,2013-06-07 20:32:00,
2013-06-07 14:37:00,73.8,41.2,23.33,NE,45,1.6,2.7,31,0.00,,,0.00,WUHU216HW,2013-06-07 20:37:00,
2013-06-07 14:42:00,73.6,40.3,23.33,SSW,203,2.0,3.4,30,0.00,,,0.00,WUHU216HW,2013-06-07 20:42:00,
2013-06-07 14:47:00,73.4,40.9,23.33,WNW,293,0.7,4.3,31,0.00,,,0.00,WUHU216HW,2013-06-07 20:47:00,
2013-06-07 14:53:00,73.6,40.3,23.33,ENE,68,0.7,4.3,30,0.00,,,0.00,WUHU216HW,2013-06-07 20:53:00,
2013-06-07 14:58:00,73.6,41.0,23.33,NE,45,1.8,3.8,31,0.00,,,0.00,WUHU216HW,2013-06-07 20:58:00,
2013-06-07 15:03:00,73.4,40.1,23.33,NW,315,4.0,4.7,30,0.00,,,0.00,WUHU216HW,2013-06-07 21:03:00,
2013-06-07 15:09:00,73.4,40.1,23.33,NE,45,1.1,4.7,30,0.00,,,0.00,WUHU216HW,2013-06-07 21:09:00,
2013-06-07 15:14:00,73.1,39.9,23.33,ESE,113,0.7,4.7,30,0.00,,,0.00,WUHU216HW,2013-06-07 21:14:00,
2013-06-07 15:19:00,73.1,39.9,23.32,NNW,338,2.2,3.8,30,0.00,,,0.00,WUHU216HW,2013-06-07 21:19:00,
2013-06-07 15:24:00,73.3,39.0,23.33,NNW,338,3.6,6.0,29,0.00,,,0.00,WUHU216HW,2013-06-07 21:24:00,
2013-06-07 15:29:00,73.4,39.2,23.33,WSW,248,1.3,6.7,29,0.00,,,0.00,WUHU216HW,2013-06-07 21:29:00,
2013-06-07 15:35:00,73.4,39.2,23.32,WNW,293,2.9,6.7,29,0.00,,,0.00,WUHU216HW,2013-06-07 21:35:00,
2013-06-07 15:40:00,73.3,38.0,23.32,SSW,203,1.6,4.3,28,0.00,,,0.00,WUHU216HW,2013-06-07 21:40:00,
2013-06-07 15:45:00,73.1,38.9,23.32,SSW,203,2.7,5.1,29,0.00,,,0.00,WUHU216HW,2013-06-07 21:45:00,
2013-06-07 15:50:00,72.7,39.6,23.32,WSW,248,1.8,5.1,30,0.00,,,0.00,WUHU216HW,2013-06-07 21:50:00,
2013-06-07 15:55:00,72.4,39.2,23.32,WNW,293,2.7,4.0,30,0.00,,,0.00,WUHU216HW,2013-06-07 21:55:00,
2013-06-07 16:00:00,72.2,40.6,23.32,NNE,23,3.8,4.3,32,0.00,,,0.00,WUHU216HW,2013-06-07 22:00:00,
2013-06-07 16:06:00,72.0,39.0,23.32,SW,225,0.9,5.1,30,0.00,,,0.00,WUHU216HW,2013-06-07 22:06:00,
2013-06-07 16:11:00,72.2,39.2,23.32,NW,315,2.2,5.1,30,0.00,,,0.00,WUHU216HW,2013-06-07 22:11:00,
2013-06-07 16:16:00,72.4,40.1,23.32,SSW,203,0.4,5.1,31,0.00,,,0.00,WUHU216HW,2013-06-07 22:16:00,
2013-06-07 16:21:00,72.5,40.1,23.32,West,270,3.4,6.5,31,0.00,,,0.00,WUHU216HW,2013-06-07 22:21:00,
2013-06-07 16:26:00,72.5,40.1,23.32,West,270,2.5,6.5,31,0.00,,,0.00,WUHU216HW,2013-06-07 22:26:00,
2013-06-07 16:31:00,72.5,40.1,23.32,West,270,2.0,5.4,31,0.00,,,0.00,WUHU216HW,2013-06-07 22:31:00,
2013-06-07 16:36:00,72.5,40.1,23.31,East,90,2.2,5.4,31,0.00,,,0.00,WUHU216HW,2013-06-07 22:36:00,
2013-06-07 16:41:00,72.5,40.1,23.31,WSW,248,2.7,3.8,31,0.00,,,0.00,WUHU216HW,2013-06-07 22:41:00,
2013-06-07 16:47:00,72.4,40.8,23.31,WNW,293,1.3,4.0,32,0.00,,,0.00,WUHU216HW,2013-06-07 22:47:00,
2013-06-07 16:52:00,72.4,40.1,23.31,West,270,2.7,6.9,31,0.00,,,0.00,WUHU216HW,2013-06-07 22:52:00,
2013-06-07 16:57:00,72.4,40.1,23.31,South,180,0.2,6.9,31,0.00,,,0.00,WUHU216HW,2013-06-07 22:57:00,
2013-06-07 17:02:00,72.4,40.1,23.31,West,270,2.9,6.5,31,0.00,,,0.00,WUHU216HW,2013-06-07 23:02:00,
2013-06-07 17:07:00,72.4,40.1,23.31,WSW,248,1.6,5.4,31,0.00,,,0.00,WUHU216HW,2013-06-07 23:07:00,
2013-06-07 17:12:00,72.4,40.1,23.30,WSW,248,4.7,4.7,31,0.00,,,0.00,WUHU216HW,2013-06-07 23:12:00,
2013-06-07 17:18:00,72.0,39.7,23.30,ENE,68,1.1,4.7,31,0.00,,,0.00,WUHU216HW,2013-06-07 23:18:00,
2013-06-07 17:23:00,72.0,39.7,23.30,West,270,0.7,5.6,31,0.00,,,0.00,WUHU216HW,2013-06-07 23:23:00,
2013-06-07 17:28:00,72.0,40.5,23.30,ENE,68,0.7,5.6,32,0.00,,,0.00,WUHU216HW,2013-06-07 23:28:00,
2013-06-07 17:33:00,72.0,40.5,23.30,WSW,248,2.5,4.0,32,0.00,,,0.00,WUHU216HW,2013-06-07 23:33:00,
2013-06-07 17:38:00,72.0,40.5,23.30,NNW,338,0.7,4.3,32,0.00,,,0.00,WUHU216HW,2013-06-07 23:38:00,
2013-06-07 17:43:00,72.0,40.5,23.30,WNW,293,0.4,4.3,32,0.00,,,0.00,WUHU216HW,2013-06-07 23:43:00,
2013-06-07 17:48:00,72.0,40.5,23.30,West,270,1.1,3.4,32,0.00,,,0.00,WUHU216HW,2013-06-07 23:48:00,
2013-06-07 17:54:00,72.0,40.5,23.30,West,270,2.9,4.3,32,0.00,,,0.00,WUHU216HW,2013-06-07 23:54:00,
2013-06-07 17:59:00,71.8,41.0,23.29,NW,315,0.4,4.3,33,0.00,,,0.00,WUHU216HW,2013-06-07 23:59:00,
2013-06-07 18:04:00,71.6,41.0,23.29,East,90,0.0,2.9,33,0.00,,,0.00,WUHU216HW,2013-06-08 00:04:00,
2013-06-07 18:10:00,71.5,40.8,23.29,WSW,248,0.4,1.8,33,0.00,,,0.00,WUHU216HW,2013-06-08 00:10:00,
2013-06-07 18:15:00,71.3,41.3,23.29,WNW,293,1.8,1.8,34,0.00,,,0.00,WUHU216HW,2013-06-08 00:15:00,
2013-06-07 18:20:00,70.9,40.2,23.29,NW,315,0.0,1.8,33,0.00,,,0.00,WUHU216HW,2013-06-08 00:20:00,
2013-06-07 18:26:00,70.9,41.1,23.29,West,270,0.7,1.8,34,0.00,,,0.00,WUHU216HW,2013-06-08 00:26:00,
2013-06-07 18:31:00,70.6,40.7,23.29,West,270,0.0,1.1,34,0.00,,,0.00,WUHU216HW,2013-06-08 00:31:00,
2013-06-07 18:36:00,70.6,41.4,23.28,SSW,203,0.0,2.0,35,0.00,,,0.00,WUHU216HW,2013-06-08 00:36:00,
2013-06-07 18:41:00,70.6,40.7,23.28,NNE,23,0.2,2.5,34,0.00,,,0.00,WUHU216HW,2013-06-08 00:41:00,
2013-06-07 18:46:00,70.6,40.7,23.28,WNW,293,0.2,3.4,34,0.00,,,0.00,WUHU216HW,2013-06-08 00:46:00,
2013-06-07 18:51:00,70.6,40.7,23.28,South,180,1.3,3.4,34,0.00,,,0.00,WUHU216HW,2013-06-08 00:51:00,
2013-06-07 18:56:00,70.6,40.7,23.28,South,180,0.0,2.2,34,0.00,,,0.00,WUHU216HW,2013-06-08 00:56:00,
2013-06-07 19:01:00,70.6,40.7,23.28,WNW,293,1.8,2.5,34,0.00,,,0.00,WUHU216HW,2013-06-08 01:01:00,
2013-06-07 19:07:00,70.6,40.0,23.28,West,270,0.4,2.5,33,0.00,,,0.00,WUHU216HW,2013-06-08 01:07:00,
2013-06-07 19:12:00,70.6,40.0,23.28,NNW,338,0.0,1.8,33,0.00,,,0.00,WUHU216HW,2013-06-08 01:12:00,
2013-06-07 19:17:00,70.2,39.6,23.28,WNW,293,2.2,2.2,33,0.00,,,0.00,WUHU216HW,2013-06-08 01:17:00,
2013-06-07 19:22:00,70.4,39.8,23.28,West,270,0.4,4.5,33,0.00,,,0.00,WUHU216HW,2013-06-08 01:22:00,
2013-06-07 19:27:00,70.4,39.1,23.28,SSW,203,2.9,4.5,32,0.00,,,0.00,WUHU216HW,2013-06-08 01:27:00,
2013-06-07 19:32:00,70.6,40.0,23.27,WNW,293,0.4,4.0,33,0.00,,,0.00,WUHU216HW,2013-06-08 01:32:00,
2013-06-07 19:37:00,70.6,40.0,23.28,NW,315,0.2,2.7,33,0.00,,,0.00,WUHU216HW,2013-06-08 01:37:00,
2013-06-07 19:42:00,70.4,39.8,23.27,SW,225,1.3,2.7,33,0.00,,,0.00,WUHU216HW,2013-06-08 01:42:00,
2013-06-07 19:47:00,70.2,39.6,23.27,West,270,0.4,4.0,33,0.00,,,0.00,WUHU216HW,2013-06-08 01:47:00,
2013-06-07 19:52:00,69.8,39.3,23.27,West,270,0.9,4.3,33,0.00,,,0.00,WUHU216HW,2013-06-08 01:52:00,
2013-06-07 19:57:00,69.8,39.3,23.27,WSW,248,0.9,4.7,33,0.00,,,0.00,WUHU216HW,2013-06-08 01:57:00,
2013-06-07 20:03:00,69.8,39.3,23.27,West,270,0.7,4.7,33,0.00,,,0.00,WUHU216HW,2013-06-08 02:03:00,
2013-06-07 20:08:00,69.7,39.2,23.27,SSE,158,0.0,4.7,33,0.00,,,0.00,WUHU216HW,2013-06-08 02:08:00,
2013-06-07 20:13:00,69.5,39.0,23.27,West,270,2.0,4.3,33,0.00,,,0.00,WUHU216HW,2013-06-08 02:13:00,
2013-06-07 20:18:00,69.3,38.8,23.27,West,270,0.4,4.3,33,0.00,,,0.00,WUHU216HW,2013-06-08 02:18:00,
2013-06-07 20:23:00,68.9,40.0,23.27,WSW,248,1.6,2.0,35,0.00,,,0.00,WUHU216HW,2013-06-08 02:23:00,
2013-06-07 20:28:00,68.4,39.5,23.27,WSW,248,0.0,2.2,35,0.00,,,0.00,WUHU216HW,2013-06-08 02:28:00,
2013-06-07 20:33:00,67.7,40.3,23.27,SW,225,0.2,2.2,37,0.00,,,0.00,WUHU216HW,2013-06-08 02:33:00,
2013-06-07 20:38:00,67.0,39.7,23.27,SW,225,1.8,2.0,37,0.00,,,0.00,WUHU216HW,2013-06-08 02:38:00,
2013-06-07 20:43:00,66.2,39.8,23.27,WSW,248,2.5,2.5,38,0.00,,,0.00,WUHU216HW,2013-06-08 02:43:00,
2013-06-07 20:48:00,65.5,39.2,23.27,West,270,1.6,2.7,38,0.00,,,0.00,WUHU216HW,2013-06-08 02:48:00,
2013-06-07 20:53:00,65.2,39.5,23.26,WSW,248,1.3,2.7,39,0.00,,,0.00,WUHU216HW,2013-06-08 02:53:00,
2013-06-07 20:58:00,64.6,39.1,23.26,WSW,248,2.2,2.9,39,0.00,,,0.00,WUHU216HW,2013-06-08 02:58:00,
2013-06-07 21:03:00,64.4,38.9,23.26,West,270,0.7,2.9,39,0.00,,,0.00,WUHU216HW,2013-06-08 03:03:00,
2013-06-07 21:08:00,64.4,38.9,23.26,WSW,248,0.4,2.7,39,0.00,,,0.00,WUHU216HW,2013-06-08 03:08:00,
2013-06-07 21:13:00,64.3,38.0,23.26,SW,225,0.7,2.5,38,0.00,,,0.00,WUHU216HW,2013-06-08 03:13:00,
2013-06-07 21:18:00,64.3,38.0,23.26,West,270,0.4,2.5,38,0.00,,,0.00,WUHU216HW,2013-06-08 03:18:00,
2013-06-07 21:23:00,64.4,38.2,23.26,WSW,248,1.3,1.8,38,0.00,,,0.00,WUHU216HW,2013-06-08 03:23:00,
2013-06-07 21:28:00,64.1,37.8,23.26,WSW,248,0.9,2.5,38,0.00,,,0.00,WUHU216HW,2013-06-08 03:28:00,
2013-06-07 21:34:00,63.7,38.3,23.26,WSW,248,2.5,2.5,39,0.00,,,0.00,WUHU216HW,2013-06-08 03:34:00,
2013-06-07 21:39:00,63.5,37.4,23.26,WNW,293,1.6,2.5,38,0.00,,,0.00,WUHU216HW,2013-06-08 03:39:00,
2013-06-07 21:44:00,63.7,37.5,23.26,WNW,293,1.6,2.5,38,0.00,,,0.00,WUHU216HW,2013-06-08 03:44:00,
2013-06-07 21:49:00,63.9,37.7,23.26,West,270,0.9,2.0,38,0.00,,,0.00,WUHU216HW,2013-06-08 03:49:00,
2013-06-07 21:54:00,64.1,37.8,23.26,West,270,1.1,2.0,38,0.00,,,0.00,WUHU216HW,2013-06-08 03:54:00,
2013-06-07 21:59:00,64.1,37.1,23.26,West,270,1.1,1.1,37,0.00,,,0.00,WUHU216HW,2013-06-08 03:59:00,
2013-06-07 22:01:00,64.3,37.3,23.26,WNW,293,0.2,1.1,37,0.00,,,0.00,WUHU216HW,2013-06-08 04:01:00,
2013-06-07 22:06:00,64.3,37.3,23.26,West,270,0.2,1.8,37,0.00,,,0.00,WUHU216HW,2013-06-08 04:06:00,
2013-06-07 22:12:00,64.3,37.3,23.26,WNW,293,0.7,1.8,37,0.00,,,0.00,WUHU216HW,2013-06-08 04:12:00,
2013-06-07 22:17:00,64.3,37.3,23.26,WNW,293,0.9,1.8,37,0.00,,,0.00,WUHU216HW,2013-06-08 04:17:00,
2013-06-07 22:22:00,64.3,37.3,23.27,WNW,293,0.4,1.6,37,0.00,,,0.00,WUHU216HW,2013-06-08 04:22:00,
2013-06-07 22:27:00,64.3,37.3,23.27,WNW,293,0.4,1.6,37,0.00,,,0.00,WUHU216HW,2013-06-08 04:27:00,
2013-06-07 22:32:00,64.1,37.1,23.26,West,270,2.5,2.5,37,0.00,,,0.00,WUHU216HW,2013-06-08 04:32:00,
2013-06-07 22:37:00,64.3,37.3,23.27,WNW,293,0.7,2.5,37,0.00,,,0.00,WUHU216HW,2013-06-08 04:37:00,
2013-06-07 22:42:00,64.1,37.1,23.27,West,270,1.6,1.8,37,0.00,,,0.00,WUHU216HW,2013-06-08 04:42:00,
2013-06-07 22:47:00,64.3,37.3,23.26,West,270,0.7,1.8,37,0.00,,,0.00,WUHU216HW,2013-06-08 04:47:00,
2013-06-07 22:52:00,64.1,37.1,23.27,WNW,293,1.8,1.8,37,0.00,,,0.00,WUHU216HW,2013-06-08 04:52:00,
2013-06-07 22:57:00,64.1,37.1,23.26,WNW,293,1.3,2.0,37,0.00,,,0.00,WUHU216HW,2013-06-08 04:57:00,
2013-06-07 23:02:00,64.1,37.1,23.26,West,270,0.9,2.0,37,0.00,,,0.00,WUHU216HW,2013-06-08 05:02:00,
2013-06-07 23:07:00,64.1,37.1,23.27,West,270,0.7,2.0,37,0.00,,,0.00,WUHU216HW,2013-06-08 05:07:00,
2013-06-07 23:12:00,63.9,37.7,23.27,WNW,293,1.6,1.6,38,0.00,,,0.00,WUHU216HW,2013-06-08 05:12:00,
2013-06-07 23:17:00,63.9,37.7,23.26,West,270,1.8,1.8,38,0.00,,,0.00,WUHU216HW,2013-06-08 05:17:00,
2013-06-07 23:22:00,63.7,37.5,23.26,West,270,1.1,2.2,38,0.00,,,0.00,WUHU216HW,2013-06-08 05:22:00,
2013-06-07 23:27:00,63.5,37.4,23.26,WNW,293,1.1,2.2,38,0.00,,,0.00,WUHU216HW,2013-06-08 05:27:00,
2013-06-07 23:32:00,63.5,37.4,23.26,West,270,0.9,2.2,38,0.00,,,0.00,WUHU216HW,2013-06-08 05:32:00,
2013-06-07 23:37:00,63.5,37.4,23.26,West,270,1.8,2.2,38,0.00,,,0.00,WUHU216HW,2013-06-08 05:37:00,
2013-06-07 23:42:00,63.4,37.2,23.26,WSW,248,0.2,1.8,38,0.00,,,0.00,WUHU216HW,2013-06-08 05:42:00,
2013-06-07 23:47:00,63.2,37.0,23.26,WNW,293,0.0,1.8,38,0.00,,,0.00,WUHU216HW,2013-06-08 05:47:00,
2013-06-07 23:52:00,63.0,36.9,23.26,West,270,1.6,1.6,38,0.00,,,0.00,WUHU216HW,2013-06-08 05:52:00,
2013-06-07 23:57:00,63.0,36.9,23.27,WNW,293,1.1,1.6,38,0.00,,,0.00,WUHU216HW,2013-06-08 05:57:00,